Regional Weather Roundup
Issued by NWS Nashville, TN

Home | Current Version | Previous Version | Text Only | Print | Product List | Glossary On
Versions: 1 2 3 4 5 6 7 8 9 10 11 12 13 14 15 16 17 18 19 20 21 22 23 24 25 26 27 28 29 30 31 32 33 34 35 36 37 38 39 40 41 42 43 44 45 46 47 48 49 50
000
ASUS44 KOHX 250410
RWROHX
MIDDLE TENNESSEE HOURLY WEATHER ROUNDUP
NATIONAL WEATHER SERVICE NASHVILLE TN
1100 PM CDT SAT SEP 24 2016

NOTE: "FAIR" INDICATES FEW OR NO CLOUDS BELOW 12,000 FEET WITH
NO SIGNIFICANT WEATHER AND/OR OBSTRUCTIONS TO VISIBILITY.

* THESE REPORTS ARE NOT UNDER NWS QUALITY CONTROL AND MAY NOT
  REPORT WEATHER SUCH AS PRECIPITATION AND FOG.


TNZ005>011-023>034-057-059-062>066-078-080-250500
...NORTHERN MIDDLE TENNESSEE...

CITY           SKY/WX    TMP DP  RH WIND       PRES   REMARKS
CLARKSVILLE    CLEAR     72  66  81 CALM      30.07S
CROSSVILLE     CLEAR     66  63  90 CALM      30.14S
GALLATIN       CLEAR     70  66  88 CALM      30.10R
DICKSON        CLEAR     70  67  90 CALM      30.08R
NASHVILLE      CLEAR     73  65  75 CALM      30.07S
WEST NASHVILLE CLEAR     72  68  88 CALM      30.06S
PORTLAND       CLEAR     68  66  94 CALM      30.08S
SMYRNA         CLEAR     68  64  87 CALM      30.08S
SPARTA         CLEAR     66  64  94 CALM      30.09S
SPRINGFIELD    CLOUDY    70  66  88 CALM      30.07S
$$
TNZ056-058-060-061-075>077-079-093>097-250500
...SOUTHERN MIDDLE TENNESSEE...

CITY           SKY/WX    TMP DP  RH WIND       PRES   REMARKS
COLUMBIA         N/A    N/A N/A N/A CALM      30.06S
FAYETTEVILLE   CLOUDY    73  64  73 NE6       30.07S
MCMINNVILLE    CLEAR     68  68 100 MISG      30.10S
SHELBYVILLE    CLEAR     72  64  78 E3        30.08S
TULLAHOMA      CLEAR     66  61  82 CALM      30.10S
WINCHESTER     CLEAR     66  64  94 CALM      30.08S
$$


...KEY TO REMARKS...
VSB - VISIBILITY IN MILES
WCI - WIND CHILL INDEX
HX  - HEAT INDEX




USA.gov is the U.S. government's official web portal to all federal, state and local government web resources and services.